#timestamp,LO_Frequency,Hit,StdDev 
1711076415.3,286046998.8,N
1711076435.1,286046998.4,N
1711076436.0,286046998.4,N
1711076455.8,286046996.8,N
1711076475.7,286046995.8,N
1711076495.5,286046993.0,Y
1711076515.4,286046991.8,P
1711076535.2,286046991.8,N
1711076555.0,286046993.0,N
1711076555.9,286046993.0,N
1711076575.8,286046990.9,Y
1711076595.7,286046997.7,P
1711076615.5,286046999.1,N
1711076635.3,286047000.8,N
1711076655.2,286047000.5,N
1711076675.0,286047003.1,N
1711076675.9,286047003.1,N
1711076695.8,286047004.3,N
1711076715.6,286047002.1,N
1711076735.5,286046999.6,N
1711076755.3,286046999.7,N
1711076775.1,286046998.1,N
1711076795.9,286046996.0,N
1711076815.7,286046993.7,N
1711076835.6,286046999.6,N
1711076855.4,286046997.0,N
1711076875.3,286047000.6,N
1711076895.1,286047001.1,N
1711076915.8,286047002.5,N
1711076935.7,286047000.6,N
1711076955.5,286047001.1,N
1711076975.4,286047001.2,N
1711076995.2,286046997.4,N
1711077015.0,286046993.3,N
1711077016.0,286046993.3,N
1711077035.8,286046990.5,Y
1711077055.6,286046990.1,P
1711077075.5,286046991.8,N
1711077095.3,286046994.0,N
1711077115.1,286046991.8,N
1711077135.9,286046992.7,N
1711077155.7,286046992.8,N
1711077175.6,286046992.4,N
1711077195.4,286046994.9,N
1711077215.2,286046996.1,N
1711077235.1,286046994.9,N
1711077236.0,286046994.9,N
1711077255.8,286046994.6,N
1711077275.7,286046995.0,N
1711077295.5,286047002.4,N
1711077315.3,286047000.0,N
1711077335.2,286046998.1,N
1711077355.0,286047000.7,N
1711077355.9,286047000.7,N
1711077375.7,286047001.2,N
1711077395.6,286047000.1,N
1711077415.4,286047004.4,N
1711077435.3,286047003.3,N
1711077455.1,286047005.4,N
1711077456.0,286047005.4,N
1711077475.8,286047005.7,N
1711077495.7,286047006.2,N
1711077515.5,286047006.6,N
1711077535.3,286047009.1,N
1711077555.2,286047008.3,N
1711077575.0,286047012.2,N
1711077575.9,286047012.2,N
1711077595.8,286047012.4,N
1711077615.6,286047011.0,N
1711077635.4,286047016.8,N
1711077655.3,286047019.2,N
1711077675.1,286047019.6,N
1711077695.8,286047021.4,N
1711077715.7,286047022.0,N
1711077735.5,286047016.2,N
1711077755.4,286047014.7,N
1711077775.2,286047013.7,N
1711077795.0,286047011.4,N
1711077795.9,286047011.4,N
1711077815.8,286047013.7,N
1711077835.6,286047011.3,N
1711077855.4,286047008.3,N
1711077875.3,286047002.9,N
1711077895.1,286047004.4,N
1711077915.9,286047002.0,N
1711077935.7,286047001.6,N
1711077955.5,286047005.4,N
1711077975.4,286047005.3,N
1711077995.2,286047000.1,N
1711078015.0,286046998.4,N
1711078015.9,286046998.4,N
1711078035.8,286046993.8,N
1711078055.6,286046989.4,N
1711078075.5,286046989.3,N
1711078095.3,286046988.7,N
1711078115.1,286046992.9,N
1711078135.9,286046995.7,N
1711078155.7,286046997.0,N
1711078175.5,286046999.5,N
1711078195.4,286046995.6,N
1711078215.2,286046994.7,N
1711078235.1,286046990.4,N
1711078236.0,286046990.4,N
1711078255.8,286046991.3,N
1711078275.6,286046989.2,N
1711078295.5,286046990.8,N
1711078315.3,286046989.2,N
1711078335.1,286046988.7,N
1711078355.9,286046989.8,N
1711078375.7,286046989.4,N
1711078395.6,286046990.2,N
1711078415.4,286046994.3,N
1711078435.2,286046997.6,N
1711078455.1,286046998.0,N
1711078456.0,286046998.0,N
1711078475.8,286046997.2,N
1711078495.6,286047000.9,N
1711078515.5,286047003.9,N
1711078535.3,286047000.5,N
1711078555.2,286047002.6,N
1711078575.9,286047000.0,N
1711078595.7,286047000.7,N
1711078615.6,286046997.8,N
1711078635.4,286046994.6,N
1711078655.3,286046994.6,N
1711078675.1,286046994.1,N
1711078676.0,286046994.1,N
1711078695.8,286046990.4,N
1711078715.7,286046993.0,N
1711078735.5,286046999.6,N
1711078755.3,286046998.6,N
1711078775.2,286046997.8,N
1711078795.0,286046997.5,N
1711078795.9,286046997.5,N
1711078815.8,286046997.0,N
1711078835.6,286046995.8,N
1711078855.4,286046998.9,N
1711078875.3,286046998.5,N
1711078895.1,286046998.2,N
1711078915.9,286046998.0,N
1711078935.7,286046995.9,N
1711078955.5,286046999.4,N
1711078975.4,286046996.4,N
1711078995.2,286046993.2,N
1711079015.0,286046991.6,N
1711079015.9,286046991.6,N
1711079035.8,286046989.8,Y
1711079055.6,286046990.9,P
1711079075.5,286046992.8,N
1711079095.3,286046993.9,N
1711079115.1,286046995.7,N
1711079135.9,286046995.9,N
1711079155.7,286046996.8,N
1711079175.5,286047002.5,N
1711079195.4,286047004.3,N
1711079215.2,286047000.1,N
1711079235.1,286047002.6,N
1711079236.0,286047002.6,N
1711079255.8,286046999.8,N
1711079275.6,286047004.4,N
1711079295.5,286047009.1,N
1711079315.3,286047010.5,N
1711079335.1,286047008.2,N
1711079355.9,286047010.7,N
1711079375.7,286047016.7,N
1711079395.6,286047017.4,N
1711079415.4,286047021.9,N
1711079435.2,286047022.3,N
1711079455.1,286047019.6,N
1711079456.0,286047019.6,N
1711079475.8,286047016.4,N
1711079495.6,286047012.7,N
1711079515.5,286047011.7,N
1711079535.3,286047011.7,N
1711079555.2,286047009.9,N
1711079575.9,286047006.9,N
1711079595.7,286047008.9,N
1711079615.6,286047006.8,N
1711079635.4,286047006.5,N
1711079655.2,286047008.6,N
1711079675.1,286047007.2,N
1711079676.0,286047007.2,N
1711079695.8,286047009.9,N
1711079715.7,286047010.5,N
1711079735.5,286047007.8,N
1711079755.4,286047013.2,N
1711079775.2,286047015.5,N
1711079795.0,286047014.0,N
1711079795.9,286047014.0,N
1711079815.8,286047011.4,N
1711079835.6,286047011.8,N
1711079855.5,286047010.3,N
1711079875.3,286047009.0,N
1711079895.1,286047006.2,N
1711079915.9,286047008.5,N
1711079935.7,286047010.4,N
1711079955.6,286047013.9,Y
1711079975.4,286047000.4,P
1711079995.2,286047003.4,N
